Flag for U.S.A. Weather past 2 weeks in Pittsburgh, Pennsylvania, U.S.A.

Now
73 °F

Sunny.


Feels Like: 77 °F
Forecast: 65 / 85 °F
Wind: 3 mph from North

Location: Allegheny County Airport

Current Time: Jul 31, 2015 at 9:50:26 AM

Latest Report: Jul 31, 2015 at 8:53 AM


Visibility: 10 mi

Pressure: 30.00 "Hg

Humidity: 53%

Dew point: 55 °F

Location of PittsburghLocation

Historic Weather in Pittsburgh — Graph

°F

Pittsburgh temperature yesterday

Maximum temperature yesterday: 85 °F (at 2:53 PM)
Minimum temperature yesterday: 73 °F (at 7:53 AM)
Average temperature yesterday: 79 °F

Past Weeks' High & Low Weather Summary

 TemperatureHumidityPressure
High90 °F (Jul 29, 4:53 PM)88% (Jul 19, 3:53 AM)30.10 "Hg (Jul 19, 3:53 AM)
Low57 °F (Jul 16, 7:53 AM)28% (Jul 30, 12:53 PM)29.71 "Hg (Jul 21, 4:53 AM)
Average75 °F58%29.94 "Hg
* Reported Jul 16 7:53 AM — Jul 31 7:53 AM, Pittsburgh, Weather by CustomWeather, © 2015

Note: Actual official high and low records may vary slightly from our data, if they occured in-between our weather recording intervals... More about our weather records

Advertising

Pittsburgh weather history for previous 24 hours

 ConditionsComfort  
Time TempWeatherWind HumidityBarometerVisibility
7:53 AM
Fri, Jul 31
69 °FSunny.5 mph59%30.00 "Hg10 mi
6:53 AM66 °FClear.7 mph65%29.98 "Hg10 mi
5:53 AM66 °FClear.7 mph65%29.97 "Hg10 mi
4:53 AM67 °FClear.7 mph63%29.96 "Hg10 mi
3:53 AM68 °FPassing clouds.6 mph61%29.96 "Hg10 mi
2:53 AM69 °FPassing clouds.9 mph59%29.97 "Hg10 mi
1:53 AM70 °FPassing clouds.9 mph59%29.98 "Hg10 mi
12:53 AM71 °FPassing clouds.7 mph57%29.98 "Hg10 mi
11:53 PM
Thu, Jul 30
73 °FPassing clouds.9 mph50%29.98 "Hg10 mi
10:53 PM74 °FPassing clouds.8 mph48%29.98 "Hg10 mi
9:53 PM77 °FPassing clouds.7 mph42%29.97 "Hg10 mi
8:53 PM77 °FScattered clouds.8 mph42%29.95 "Hg10 mi
7:53 PM80 °FSunny.6 mph38%29.94 "Hg10 mi
6:53 PM82 °FSunny.6 mph35%29.92 "Hg10 mi
5:53 PM83 °FSunny.9 mph32%29.92 "Hg10 mi
4:53 PM84 °FSunny.15 mph31%29.92 "Hg10 mi
3:53 PM85 °FSunny.10 mph28%29.91 "Hg10 mi
2:53 PM85 °FSunny.9 mph29%29.93 "Hg10 mi
1:53 PM84 °FSunny.12 mph29%29.95 "Hg10 mi
12:53 PM83 °FSunny.15 mph28%29.96 "Hg10 mi
11:53 AM82 °FSunny.8 mph34%29.97 "Hg10 mi
10:53 AM80 °FSunny.7 mph38%29.96 "Hg10 mi
9:53 AM78 °FSunny.8 mph43%29.96 "Hg10 mi
Weather by CustomWeather, © 2015

See weather overviewHow to use our weather pages